Location: Chippewa Lake
(41.0698°N, 81.9010°W)
Time: 01:59:28
(UTC+00:00)

Cosmos 1666 Rocket - Pass Details

Date: 09 May 2021
Orbit: 603 x 634 km, 82.5° (Epoch: 24 June)

Event Time Altitude Azimuth Distance (km) Brightness Sun altitude
Rises 02:40:34 0° 348° (NNW) 2,908 8.0 -20.3°
Reaches altitude 10° 02:42:50 10° 345° (NNW) 1,992 7.1 -20.6°
Maximum altitude 02:47:11 61° 266° (W) 699 3.9 -21.2°
Enters shadow 02:48:38 38° 203° (SSW) 936 4.2 -21.3°
